Temperature
24 23 23 22 21 21 24 26 27 27 26 26 26 26 25 24 22 20 20 20 21 21 20 20 20 20 20 20 20 19 19 19 19 19 19 19 19 19 19 19 18 18 18 18 18 18 18 18 18
24 24 23 22 21 22 24 26 27 27 26 26 26 25 24 22 21 20 20 21 21 21 21 20 20 20 20 20 20 19 19 19 19 19 19 19 19 19 19 19 18 18 19 18 18 18 18 18 18
24 24 23 21 22 23 25 27 27 27 27 26 26 25 24 22 20 20 21 21 21 21 21 20 20 20 20 20 19 19 19 19 19 19 19 19 18 18 18 18 18 19 18 18 18 18 18 18 17
24 24 23 21 23 24 26 27 27 27 27 26 25 25 24 22 22 22 21 21 21 21 21 20 20 20 20 20 19 19 19 19 19 19 19 18 18 18 18 18 18 18 18 18 18 18 18 17 17
24 23 21 21 23 25 27 28 27 27 26 26 25 23 23 23 23 22 21 22 22 21 21 20 20 20 20 20 20 19 19 19 19 19 19 18 18 18 18 18 18 18 18 18 18 18 18 17 17
24 22 21 22 24 26 27 27 27 26 25 25 24 23 21 22 23 22 22 22 22 21 21 20 20 20 20 20 20 19 19 19 19 19 19 19 18 18 18 18 18 18 18 18 18 18 18 17 17
24 21 22 24 25 26 27 27 27 26 26 25 24 22 21 21 22 22 22 22 22 21 21 21 20 20 20 20 20 20 19 19 19 19 19 18 18 18 18 18 18 18 18 18 18 18 18 17 17
26 21 23 23 25 26 27 27 27 26 26 25 25 23 21 21 22 22 22 22 22 21 21 21 20 20 20 20 20 20 19 19 19 19 19 18 18 18 18 18 18 18 18 18 18 18 18 17 17
26 21 22 24 25 26 27 27 27 27 26 25 25 24 23 22 21 21 21 21 21 21 21 21 21 20 20 20 20 19 19 19 19 19 18 18 18 18 18 18 18 18 18 18 18 18 18 18 17
25 22 24 26 26 26 27 27 27 26 25 25 25 24 23 22 21 21 21 21 21 21 21 21 21 20 20 20 20 19 19 19 19 19 19 19 18 18 18 18 18 18 18 18 18 18 18 18 18
25 24 26 27 28 28 27 27 27 26 24 24 24 24 23 22 22 22 22 22 22 22 21 21 21 21 20 20 20 19 19 19 19 19 19 18 18 18 18 18 18 18 18 18 18 18 18 18 18
26 26 28 29 29 28 27 27 27 26 26 26 26 25 24 23 22 22 22 22 22 21 21 21 21 21 20 20 20 20 19 19 19 19 18 18 18 18 18 18 18 18 18 18 18 18 18 18 18
26 27 28 29 29 29 28 27 27 26 27 26 25 25 24 24 23 23 23 22 22 21 21 21 21 21 20 20 20 20 19 19 19 19 19 18 18 18 18 18 18 18 18 18 18 18 18 18 18
27 27 28 28 29 29 28 27 26 25 26 25 25 24 24 24 24 23 22 22 22 22 21 21 21 20 20 20 20 20 19 19 19 19 19 18 18 18 18 18 18 18 18 18 18 18 18 18 18
28 26 26 27 28 28 28 26 26 26 25 25 24 24 24 24 24 23 23 22 22 22 21 21 21 20 20 20 20 19 19 19 19 19 19 19 18 18 18 18 18 18 18 18 18 18 18 18 18
26 25 25 26 27 28 27 24 25 26 25 24 24 24 24 24 24 23 23 23 22 22 21 21 20 20 20 20 20 19 19 19 19 19 19 19 18 18 18 18 18 18 18 18 18 18 18 18 18
24 24 25 25 27 27 26 25 25 26 25 24 24 24 23 23 23 23 23 23 22 22 21 21 21 20 20 20 20 19 19 19 19 19 19 19 19 18 18 18 18 18 18 18 18 18 18 18 18
23 24 25 25 27 27 25 24 25 26 25 25 24 24 23 23 23 23 23 23 22 22 21 21 20 20 20 20 20 19 19 19 19 19 19 19 19 18 18 18 18 18 18 18 18 18 18 18 18
24 24 24 25 27 27 25 25 25 25 25 24 24 24 23 23 23 23 23 22 22 21 21 21 20 20 20 20 20 19 19 19 19 19 19 19 18 18 18 18 18 18 18 18 18 18 18 18 18
24 24 24 25 27 27 25 25 24 24 24 24 24 24 24 23 23 23 22 22 22 21 21 21 20 20 20 20 20 20 20 19 19 19 19 18 18 18 18 18 18 18 18 18 18 18 18 18 18
24 24 24 25 26 26 26 24 23 23 24 24 24 24 24 23 23 23 22 22 21 21 21 21 20 20 20 20 20 19 19 19 19 19 19 19 18 18 18 18 18 18 18 18 18 18 18 18 18
24 25 26 26 25 23 25 22 22 22 22 23 23 23 23 23 23 23 22 22 22 21 21 21 20 20 20 19 19 19 19 19 19 19 19 19 18 18 18 18 18 18 18 18 18 18 18 18 18
25 26 26 26 24 23 23 22 21 21 22 22 22 23 23 23 23 22 22 22 22 21 21 20 20 20 20 19 19 19 19 19 19 19 19 18 18 18 18 18 18 18 18 18 18 18 18 18 18
27 26 25 22 20 21 22 22 21 20 22 22 22 23 23 23 22 22 22 22 21 21 20 20 20 20 19 19 19 19 19 19 19 19 18 18 18 18 18 18 18 18 18 18 18 18 18 18 18
26 22 21 21 20 20 22 22 21 22 22 23 22 23 23 23 22 22 21 21 21 21 20 20 20 20 19 19 19 19 19 18 18 18 18 18 18 18 18 18 18 18 18 18 18 18 17 17 18
24 21 20 21 21 20 21 22 21 22 23 23 23 23 23 23 22 22 22 21 21 21 20 20 20 19 19 19 19 19 19 18 18 18 18 18 18 18 18 18 18 18 18 18 17 17 17 17 17
24 22 21 20 21 20 20 21 22 22 22 22 22 22 22 22 22 22 22 21 21 21 20 20 20 19 19 19 19 19 18 18 18 18 18 18 18 18 18 18 18 18 18 17 17 17 17 17 17
25 23 20 20 20 20 21 21 20 20 20 20 21 21 21 22 22 22 21 21 21 21 20 20 19 19 19 19 19 18 18 18 18 18 18 18 18 18 17 17 17 17 17 17 17 17 17 17 17
25 24 21 18 19 19 20 20 21 20 20 20 20 21 22 21 22 21 21 21 21 20 20 19 19 19 19 19 18 18 18 18 18 18 18 18 18 17 17 17 17 17 17 17 17 17 17 17 17
24 23 20 20 20 18 19 20 21 20 20 20 20 21 22 22 21 21 21 21 20 20 19 19 19 19 19 18 18 18 18 18 18 17 17 17 17 17 17 17 17 17 17 17 17 17 17 17 17
Wind_Speed
5 4 2 1 4 5 2 2 7 9 7 8 11 11 9 6 5 8 7 17 19 16 18 20 20 20 19 19 19 18 18 18 18 18 17 18 18 17 17 17 17 16 16 16 16 17 17 17 17
3 2 1 3 5 3 1 4 10 12 11 12 12 11 9 8 10 12 10 18 19 17 18 20 21 20 20 19 18 18 18 17 17 17 16 17 17 16 16 16 16 16 16 16 16 16 16 16 16
3 1 3 4 3 1 1 3 10 13 13 10 7 7 6 9 12 7 13 20 17 15 18 21 22 21 20 19 18 18 17 17 16 16 16 16 16 16 16 16 16 16 15 15 15 15 15 15 14
1 3 4 4 2 3 3 3 10 14 11 9 10 7 5 7 8 14 22 20 18 13 17 21 22 21 20 19 18 17 17 16 16 16 15 15 16 16 16 16 15 15 15 14 14 13 13 13 13
3 4 4 2 3 2 2 4 9 11 7 8 11 8 6 6 21 24 21 20 18 13 15 20 22 21 20 19 18 18 17 16 16 15 15 15 15 15 15 15 15 15 14 14 13 12 11 11 11
4 4 3 1 2 3 2 5 9 14 15 12 11 8 5 15 23 22 20 18 17 16 14 19 21 21 20 19 19 18 17 16 15 15 15 15 15 15 15 15 15 14 13 13 12 11 10 9 9
3 3 1 1 1 2 2 3 8 13 13 9 10 8 8 15 20 20 19 18 16 15 13 14 18 19 19 19 19 18 17 16 15 15 14 15 15 15 14 14 14 13 13 12 11 10 9 8 8
5 3 1 2 1 2 1 2 6 12 9 12 9 9 12 17 19 19 18 16 15 13 12 11 14 15 16 17 18 18 17 16 16 15 14 14 14 14 14 13 13 12 12 11 10 9 7 6 7
3 4 2 3 2 2 3 5 3 6 11 7 4 8 18 22 23 20 17 14 13 13 10 10 10 12 14 15 16 17 17 16 15 15 15 14 12 12 12 12 12 12 11 10 8 7 6 5 5
4 3 6 5 4 4 2 5 4 5 9 6 9 12 18 22 23 22 20 18 16 16 13 11 11 11 13 13 14 13 13 14 13 12 13 12 11 11 11 12 12 11 10 9 7 6 4 3 3
5 6 6 5 6 6 3 2 1 9 7 11 17 19 19 21 21 21 20 19 18 17 16 14 13 12 11 8 11 9 10 11 11 12 12 11 10 9 9 9 9 9 9 6 6 4 3 2 2
4 7 6 5 5 5 5 3 3 4 9 14 20 21 18 19 19 20 20 19 17 17 16 15 14 12 11 10 9 9 8 8 8 12 13 10 7 7 7 7 8 7 7 5 5 4 4 4 3
5 7 8 7 4 3 5 4 4 4 9 13 17 17 16 16 16 16 17 18 18 17 16 16 15 14 11 10 8 9 8 9 11 11 13 13 8 6 6 6 8 8 7 7 5 4 4 3 3
6 6 6 4 2 1 6 3 5 5 13 15 15 13 14 15 14 14 15 15 17 17 17 15 15 14 12 10 8 8 9 11 11 11 13 14 12 9 7 6 6 8 9 9 7 6 4 3 3
5 6 7 5 2 2 6 2 3 9 15 15 14 12 11 12 13 15 16 16 16 16 15 15 15 13 13 12 10 9 10 11 9 10 13 14 13 11 8 6 5 7 9 8 6 5 4 3 3
5 4 3 6 3 4 6 5 6 11 15 14 13 12 11 10 12 13 13 13 13 14 14 15 15 13 12 10 8 7 9 9 9 11 12 13 14 13 9 5 5 8 8 6 4 3 3 2 2
4 2 4 7 4 4 5 6 6 11 14 13 13 12 10 9 9 10 12 13 13 13 14 14 12 12 10 8 6 6 7 7 9 10 10 12 13 13 10 6 6 8 5 4 5 4 3 3 3
4 3 5 6 6 2 5 6 8 10 13 12 12 12 10 11 11 12 12 13 12 11 11 12 11 11 9 7 5 4 5 5 7 8 10 12 12 13 10 6 6 6 4 4 3 4 3 3 3
4 6 9 10 7 2 6 8 8 8 10 11 10 11 11 11 10 10 12 12 12 11 11 11 11 10 9 6 6 5 5 5 5 5 9 11 11 11 8 5 4 5 5 5 5 4 3 2 2
8 8 9 8 5 1 5 5 5 7 10 12 14 13 12 9 8 9 10 10 12 12 11 11 11 11 10 8 6 4 4 4 5 5 7 10 11 10 9 6 5 5 5 5 5 4 3 2 3
9 8 7 6 5 3 4 2 1 3 4 7 10 11 11 13 13 12 12 11 12 13 13 13 12 11 10 8 5 4 3 2 2 4 5 6 9 11 9 8 6 5 5 5 5 5 6 4 3
9 9 7 4 1 3 3 1 5 5 4 6 7 9 11 11 11 12 12 12 12 12 11 10 10 10 9 9 8 8 6 5 5 5 5 6 8 9 10 8 7 6 5 6 6 6 4 5 3
10 8 5 3 1 2 2 3 6 2 5 8 9 10 10 10 11 13 13 12 11 10 10 9 9 9 8 9 9 8 6 5 4 4 6 6 6 7 8 9 7 6 5 6 6 5 5 5 5
8 2 4 6 5 2 5 4 5 5 10 9 8 9 11 11 11 11 11 9 8 9 9 9 9 9 8 9 9 9 8 7 6 6 6 5 4 5 7 8 7 7 6 6 6 6 6 6 5
4 5 4 3 3 5 4 3 7 7 7 9 10 10 10 12 12 11 10 10 9 10 10 9 10 9 8 9 9 9 9 9 9 7 7 6 5 5 7 7 6 5 6 6 6 6 6 6 6
7 11 8 6 5 4 3 2 5 3 4 5 6 7 8 10 10 10 10 10 10 10 10 10 10 9 9 9 8 7 7 6 6 7 7 7 6 6 6 6 6 6 7 7 5 5 5 5 6
7 7 10 8 2 1 3 3 4 6 6 5 5 6 7 8 10 10 9 9 9 9 9 10 10 8 8 8 7 6 6 6 6 6 6 6 5 6 6 6 6 6 6 6 6 5 5 5 6
10 9 7 6 5 2 3 2 3 2 2 3 3 5 6 7 8 9 9 8 8 8 7 7 8 8 7 6 7 6 6 5 5 5 5 5 5 5 5 6 6 6 6 6 5 5 4 5 5
6 6 6 6 7 7 3 5 6 8 6 5 4 5 6 7 7 7 8 8 7 6 6 6 6 6 6 6 6 6 5 5 4 4 4 5 5 5 5 6 6 6 6 5 5 5 5 5 5
9 9 9 7 5 6 5 6 4 8 6 6 5 5 6 6 6 6 7 7 7 6 6 5 5 5 5 6 5 5 4 4 4 3 3 4 4 4 5 5 5 5 5 5 5 6 5 4 4
Wind_Direction
237 229 184 48 49 46 64 99 102 86 66 70 84 90 89 70 114 132 133 138 135 139 142 139 136 132 129 125 121 118 115 113 111 110 110 111 111 112 113 113 112 112 111 111 111 111 113 113 114
243 226 91 48 67 55 58 114 97 102 116 103 84 84 79 71 88 109 123 137 137 138 140 141 139 136 132 130 126 124 121 118 116 115 115 115 114 114 115 116 117 116 116 115 114 114 114 114 115
260 227 78 60 62 161 196 125 118 113 112 100 87 71 78 111 116 118 137 138 134 135 140 144 142 139 136 133 131 129 126 123 121 120 119 119 119 117 117 118 119 120 120 119 118 117 115 115 114
28 44 45 57 302 246 214 161 117 109 94 87 97 77 76 116 120 132 138 138 133 134 141 146 143 141 139 137 135 133 130 128 126 125 123 122 122 122 121 121 121 123 123 122 121 120 118 116 114
65 70 52 3 277 276 246 147 123 114 110 102 96 91 70 84 122 133 139 138 136 137 141 146 145 144 143 141 139 137 134 132 131 130 128 127 125 125 125 124 124 125 126 125 123 122 120 118 115
45 69 71 307 276 300 202 140 115 109 115 109 103 100 90 130 132 140 141 139 139 141 142 146 147 147 146 145 143 141 139 137 136 135 133 131 130 129 129 128 128 128 129 128 127 126 123 118 112
120 96 196 260 292 269 211 147 127 130 129 133 129 106 122 146 143 143 140 138 139 141 142 144 148 149 149 148 147 146 145 143 142 140 138 137 135 135 134 134 134 134 133 133 134 133 131 122 111
154 100 336 294 251 231 190 130 139 134 126 133 133 133 153 160 146 140 137 137 139 143 145 144 146 148 149 151 152 151 150 149 147 146 144 143 141 140 139 139 140 140 140 140 141 140 136 125 113
127 83 223 230 200 217 144 108 124 115 128 151 146 143 153 149 143 138 136 138 145 149 152 150 147 148 149 153 157 156 154 155 153 153 151 146 143 143 145 147 148 148 147 147 148 148 146 130 118
121 165 222 206 186 185 152 120 141 118 114 102 103 122 140 144 146 148 151 155 158 160 163 161 157 156 157 160 157 159 158 159 158 158 155 152 153 155 156 157 155 154 154 157 161 162 158 135 123
187 207 236 236 196 176 176 152 133 130 135 152 147 148 149 149 152 155 160 163 166 166 167 167 165 165 166 159 158 163 161 163 167 169 167 165 166 167 163 162 162 161 163 166 172 178 181 178 161
239 250 249 246 211 172 168 155 105 140 174 167 155 152 155 157 160 164 165 167 167 169 171 169 169 170 170 161 166 169 167 173 179 184 182 172 165 162 163 167 168 170 174 177 183 193 208 223 218
253 258 258 245 245 186 141 135 123 132 145 150 150 151 160 165 166 168 168 167 167 171 172 172 172 174 171 164 172 174 178 182 187 188 186 177 166 167 171 176 180 188 186 189 195 204 219 226 203
264 283 289 267 279 152 123 125 123 151 139 147 152 162 169 169 165 162 166 167 170 172 172 172 173 174 170 171 175 175 181 183 185 188 187 183 176 173 176 179 187 195 197 198 197 199 201 197 172
310 317 315 290 261 207 101 50 186 164 148 153 162 172 179 172 166 167 169 169 170 169 169 170 173 173 173 174 177 174 179 179 183 189 189 183 179 176 175 176 187 196 197 195 192 196 184 183 176
352 349 312 292 251 239 135 209 224 169 157 161 170 180 183 180 175 171 165 165 165 162 166 171 175 173 172 173 171 165 171 174 182 183 184 182 179 177 173 175 188 193 186 179 175 177 169 182 176
4 301 274 294 265 212 152 195 197 174 164 168 174 179 180 179 178 177 171 167 166 163 166 170 169 169 169 166 162 157 159 168 179 178 181 182 181 180 176 178 187 181 171 176 185 173 164 177 189
239 262 286 276 273 177 162 187 182 176 164 169 173 176 175 180 185 181 173 168 164 163 164 169 166 168 164 158 148 144 147 164 175 180 183 181 181 180 175 175 181 171 167 181 178 169 170 176 184
249 280 285 281 276 169 166 178 190 182 165 168 169 175 179 184 182 171 170 165 163 163 162 170 169 170 165 166 164 165 172 170 175 183 180 178 179 178 173 175 174 172 178 185 175 161 166 185 153
255 266 277 295 299 177 162 175 188 185 182 181 176 179 178 169 166 164 165 165 171 172 173 173 176 174 175 176 173 168 162 173 175 175 177 181 178 181 188 175 179 184 179 177 177 161 160 190 161
256 235 242 256 313 15 108 35 225 226 192 188 179 178 176 173 174 172 172 173 172 177 181 182 180 179 178 170 155 142 127 129 161 172 184 189 186 186 187 180 182 189 183 187 190 178 169 187 200
251 241 227 245 331 295 103 185 264 222 222 202 189 176 176 176 173 171 172 175 181 183 178 174 176 179 178 168 168 168 177 189 197 183 185 191 193 191 189 186 186 190 191 193 199 186 179 171 191
226 235 225 227 148 345 351 146 264 230 222 215 196 184 173 169 170 172 176 180 181 176 172 173 174 178 178 175 174 176 187 194 186 179 182 195 199 197 194 190 187 192 199 201 198 184 184 182 182
215 213 21 46 68 311 247 172 254 226 207 198 189 178 172 168 175 175 173 163 167 168 170 172 175 180 178 177 178 182 187 187 184 192 194 199 199 204 204 196 189 193 198 204 204 196 191 196 193
169 105 41 360 13 254 265 167 248 246 196 181 179 179 178 167 170 170 164 165 171 173 175 175 175 180 181 182 187 190 190 190 195 197 201 200 200 208 208 204 197 196 200 200 196 198 204 201 200
182 144 159 186 206 269 338 218 273 302 150 151 156 158 163 164 165 165 169 171 175 177 179 176 179 184 186 188 191 191 192 194 201 200 199 201 204 210 203 198 200 201 199 200 195 203 212 207 210
168 174 168 140 151 58 297 297 340 40 67 104 129 134 147 161 163 166 166 171 174 174 178 178 178 182 187 189 186 189 196 198 198 199 197 196 199 204 197 195 200 203 197 198 194 206 216 211 216
167 163 114 128 155 214 275 253 214 175 130 121 139 149 156 148 157 160 160 165 170 173 172 166 170 179 181 182 189 191 194 196 198 195 196 193 195 196 186 192 199 201 199 199 195 201 210 210 222
163 146 131 139 152 153 196 258 214 185 175 164 166 163 152 150 154 157 164 168 163 154 151 158 165 169 175 182 182 181 184 187 186 191 194 192 190 187 186 195 197 199 198 193 191 195 191 206 225
168 173 151 156 194 160 161 251 236 175 179 160 155 152 144 139 134 140 147 143 135 135 140 146 162 172 179 181 174 177 177 172 179 190 191 185 186 186 188 188 187 197 200 196 194 201 195 199 217
Height
1500 1499 1498 1498 1500 1509 1509 1497 1490 1490 1491 1492 1492 1494 1498 1503 1509 1520 1518 1520 1524 1527 1530 1533 1535 1536 1537 1538 1540 1541 1541 1542 1543 1544 1545 1546 1547 1547 1548 1549 1550 1551 1551 1552 1553 1553 1554 1555 1556
1500 1499 1499 1499 1508 1521 1511 1495 1493 1491 1493 1493 1495 1498 1501 1507 1509 1513 1516 1522 1525 1527 1530 1533 1536 1537 1539 1540 1541 1542 1543 1544 1545 1546 1547 1548 1548 1549 1550 1551 1552 1553 1553 1554 1555 1556 1557 1558 1558
1500 1500 1501 1503 1512 1518 1509 1495 1492 1493 1493 1493 1497 1501 1504 1509 1511 1514 1518 1522 1526 1528 1532 1534 1536 1538 1540 1541 1542 1544 1545 1546 1547 1547 1548 1549 1550 1551 1552 1553 1554 1554 1555 1556 1557 1558 1559 1560 1561
1501 1502 1503 1509 1514 1506 1499 1494 1492 1494 1496 1495 1498 1504 1508 1512 1512 1515 1519 1523 1526 1529 1533 1535 1537 1539 1541 1542 1543 1545 1546 1547 1548 1549 1550 1551 1552 1553 1553 1554 1555 1556 1557 1558 1559 1560 1561 1562 1563
1502 1503 1510 1517 1511 1500 1494 1492 1492 1492 1495 1498 1498 1506 1511 1514 1514 1517 1521 1525 1527 1530 1534 1536 1538 1540 1542 1543 1544 1546 1547 1548 1549 1550 1551 1552 1553 1554 1555 1556 1557 1558 1559 1560 1561 1562 1563 1564 1565
1503 1505 1518 1522 1509 1498 1493 1492 1492 1493 1498 1501 1502 1507 1515 1515 1516 1519 1523 1526 1529 1531 1534 1537 1539 1541 1543 1544 1545 1547 1548 1549 1550 1552 1553 1554 1555 1556 1557 1558 1559 1560 1561 1562 1563 1564 1565 1566 1567
1504 1508 1515 1512 1507 1500 1493 1492 1492 1495 1497 1501 1502 1508 1516 1518 1518 1521 1524 1527 1530 1532 1535 1537 1540 1542 1543 1545 1546 1548 1549 1550 1552 1553 1554 1555 1556 1557 1558 1559 1560 1561 1562 1564 1565 1566 1567 1569 1569
1502 1507 1512 1510 1506 1501 1493 1493 1494 1494 1497 1501 1502 1506 1513 1517 1520 1522 1526 1529 1531 1533 1535 1537 1540 1542 1544 1545 1547 1548 1550 1551 1553 1554 1555 1556 1558 1559 1560 1561 1562 1563 1564 1565 1566 1567 1569 1570 1571
1501 1510 1516 1508 1503 1498 1493 1493 1496 1496 1496 1500 1501 1503 1508 1515 1519 1522 1526 1529 1531 1534 1536 1538 1540 1542 1544 1546 1547 1549 1550 1552 1553 1554 1556 1557 1558 1560 1561 1562 1564 1565 1566 1567 1568 1569 1570 1572 1573
1499 1511 1505 1496 1494 1493 1492 1493 1495 1498 1499 1500 1502 1506 1511 1515 1517 1520 1523 1526 1529 1532 1535 1538 1540 1542 1544 1546 1547 1549 1551 1552 1554 1555 1556 1558 1559 1561 1562 1563 1565 1566 1567 1568 1569 1570 1572 1573 1574
1496 1498 1493 1491 1491 1491 1493 1494 1495 1497 1500 1499 1501 1506 1511 1514 1517 1519 1522 1525 1528 1531 1534 1537 1539 1542 1544 1545 1547 1549 1551 1553 1554 1556 1557 1558 1560 1561 1562 1564 1565 1567 1568 1569 1570 1571 1573 1574 1575
1494 1490 1489 1488 1488 1489 1491 1492 1495 1495 1497 1497 1499 1503 1509 1513 1515 1517 1520 1524 1527 1530 1533 1536 1538 1541 1543 1545 1547 1549 1551 1553 1554 1556 1557 1559 1560 1562 1563 1565 1566 1567 1569 1570 1571 1572 1574 1574 1575
1491 1488 1486 1485 1486 1487 1489 1491 1493 1495 1496 1499 1502 1505 1508 1512 1515 1517 1519 1522 1525 1528 1532 1534 1537 1540 1542 1545 1547 1549 1551 1553 1554 1556 1557 1559 1560 1562 1563 1565 1566 1568 1569 1570 1571 1573 1574 1575 1575
1488 1485 1484 1484 1484 1485 1488 1490 1492 1495 1496 1500 1503 1506 1508 1511 1513 1516 1518 1520 1523 1526 1530 1533 1536 1538 1541 1543 1546 1548 1550 1552 1554 1556 1557 1559 1560 1562 1563 1565 1566 1568 1569 1571 1572 1573 1574 1575 1576
1486 1486 1485 1483 1483 1485 1487 1494 1493 1493 1496 1499 1502 1506 1509 1511 1512 1514 1516 1518 1521 1524 1528 1531 1534 1537 1540 1542 1545 1547 1549 1551 1553 1556 1557 1559 1560 1562 1563 1565 1566 1568 1569 1570 1572 1573 1574 1575 1576
1487 1491 1496 1486 1482 1484 1490 1503 1492 1492 1494 1498 1501 1504 1508 1510 1512 1514 1516 1518 1521 1523 1527 1530 1533 1536 1538 1541 1543 1545 1548 1550 1552 1554 1556 1558 1560 1561 1563 1564 1566 1567 1568 1570 1571 1572 1573 1574 1575
1497 1504 1500 1491 1481 1482 1489 1497 1490 1492 1493 1496 1499 1503 1506 1509 1511 1513 1515 1517 1519 1522 1525 1527 1530 1534 1537 1540 1542 1545 1546 1549 1551 1553 1555 1557 1559 1560 1562 1563 1565 1566 1568 1569 1570 1571 1572 1573 1574
1507 1503 1499 1495 1482 1482 1489 1493 1490 1491 1492 1493 1497 1500 1503 1506 1507 1510 1513 1515 1518 1520 1523 1526 1529 1532 1535 1538 1541 1543 1545 1547 1549 1551 1553 1555 1557 1559 1561 1562 1563 1565 1566 1567 1569 1570 1571 1572 1573
1495 1499 1501 1491 1479 1483 1488 1491 1489 1489 1490 1492 1495 1497 1500 1502 1505 1508 1511 1513 1516 1518 1521 1524 1527 1530 1533 1535 1538 1540 1542 1544 1547 1549 1551 1553 1555 1557 1559 1560 1562 1563 1565 1566 1567 1568 1569 1570 1572
1493 1499 1499 1489 1479 1482 1489 1490 1487 1487 1487 1488 1490 1493 1496 1500 1503 1505 1508 1511 1513 1514 1517 1521 1524 1527 1530 1533 1535 1538 1541 1543 1545 1547 1549 1551 1553 1555 1556 1558 1559 1561 1563 1564 1565 1566 1567 1569 1570
1492 1496 1495 1492 1483 1482 1488 1498 1495 1490 1488 1488 1488 1490 1493 1496 1499 1502 1505 1508 1510 1513 1515 1518 1522 1524 1527 1530 1533 1536 1538 1541 1543 1544 1546 1548 1550 1552 1554 1555 1557 1558 1560 1561 1563 1564 1565 1566 1567
1495 1482 1483 1485 1493 1502 1495 1517 1502 1493 1491 1489 1488 1490 1492 1495 1497 1499 1502 1505 1507 1510 1513 1516 1519 1522 1525 1527 1530 1532 1534 1536 1538 1541 1543 1545 1547 1549 1551 1552 1553 1555 1557 1558 1560 1561 1563 1564 1564
1482 1475 1478 1483 1491 1502 1500 1513 1508 1494 1494 1489 1488 1489 1490 1493 1495 1498 1500 1503 1506 1509 1511 1514 1517 1520 1522 1525 1527 1529 1532 1534 1536 1538 1540 1541 1543 1545 1547 1549 1550 1552 1554 1555 1557 1558 1559 1560 1561
1471 1475 1481 1491 1503 1517 1504 1510 1511 1498 1489 1485 1485 1487 1488 1491 1494 1497 1500 1502 1505 1508 1510 1512 1514 1517 1520 1522 1524 1526 1528 1530 1532 1534 1536 1538 1540 1542 1543 1545 1547 1548 1550 1551 1553 1554 1556 1557 1558
1471 1493 1515 1518 1526 1523 1502 1505 1505 1485 1480 1480 1482 1484 1485 1488 1492 1496 1499 1501 1503 1506 1508 1510 1512 1514 1517 1519 1521 1523 1525 1527 1529 1531 1532 1534 1536 1537 1539 1541 1543 1545 1546 1548 1549 1550 1552 1553 1554
1474 1489 1516 1527 1528 1520 1504 1507 1496 1480 1478 1480 1481 1483 1485 1488 1491 1494 1497 1500 1502 1504 1506 1508 1510 1512 1515 1516 1518 1520 1522 1523 1525 1527 1529 1530 1532 1534 1535 1537 1539 1541 1543 1544 1545 1546 1548 1549 1550
1472 1483 1486 1506 1511 1520 1514 1501 1490 1481 1482 1482 1483 1484 1485 1487 1490 1493 1496 1499 1502 1503 1505 1507 1509 1511 1513 1514 1516 1517 1519 1520 1522 1524 1526 1527 1529 1530 1532 1533 1535 1537 1539 1540 1542 1543 1544 1545 1546
1459 1470 1491 1506 1520 1526 1516 1507 1503 1491 1487 1485 1485 1485 1486 1487 1490 1493 1496 1499 1501 1503 1505 1506 1508 1510 1511 1513 1514 1515 1517 1518 1520 1521 1522 1523 1525 1527 1528 1529 1531 1533 1535 1536 1538 1538 1540 1541 1542
1463 1471 1483 1499 1505 1521 1524 1513 1486 1485 1483 1484 1485 1486 1486 1488 1490 1494 1496 1498 1500 1503 1504 1506 1507 1508 1509 1510 1512 1513 1514 1516 1517 1518 1519 1521 1522 1523 1525 1526 1527 1529 1531 1532 1534 1535 1536 1537 1538
1454 1464 1478 1497 1504 1507 1513 1508 1477 1479 1480 1481 1483 1485 1488 1489 1492 1494 1497 1499 1501 1503 1504 1505 1507 1507 1508 1509 1510 1511 1512 1514 1515 1516 1517 1518 1519 1520 1521 1523 1524 1526 1527 1529 1530 1531 1532 1533 1534